Weather History for Doha, Qatar

Change the Weather History Date:

Sunday, June 22, 2014

  Actual Average Record
Temperature  
Mean Temperature 96 °F -  
Max Temperature 109 °F 107 °F 114 °F (2008)
Min Temperature 83 °F 83 °F 82 °F (2001)
Cooling Degree Days 31    
Growing Degree Days 46 (Base 50)    
Moisture  
Dew Point 66 °F    
Average Humidity 44    
Maximum Humidity 75    
Minimum Humidity 9    
Precipitation  
Precipitation 0.00 in 0.00 in - ()
Sea Level Pressure  
Sea Level Pressure 29.55 in    
Wind  
Wind Speed 5 mph ()    
Max Wind Speed 13 mph    
Max Gust Speed -    
Visibility 5.6 miles    
Events      
Averages and records for this station are not official NWS values.
T = Trace of Precipitation, MM = Missing Value Source: Averaged Metar Reports

Daily Weather History Graph

Daily Weather History Graph

Search for Another Location

Airport:

Trip Planner

Search our weather history database for the weather conditions in past years. The results will help you decide how hot, cold, wet, or windy it might be!

Date:

Astronomy

Jun. 22, 2014 Rise Set
Actual Time 4:44 AM AST 6:27 PM AST
Civil Twilight 4:18 AM AST 6:52 PM AST
Nautical Twilight 3:47 AM AST 7:24 PM AST
Astronomical Twilight 3:14 AM AST 7:56 PM AST
Moon 12:55 AM AST (6/22) 2:03 PM AST (6/22)
Length of Visible Light 14h 34m
Length of Day
13h 42m
Waning Crescent, 23% of the Moon is Illuminated
Jun 22
Waning Crescent
Jun 27
New
Jul 5
First Quarter
Jul 12
Full
Jul 19
Last Quarter

Hourly Weather History & Observations

Time (AST) Temp. Heat Index Dew Point Humidity Pressure Visibility Wind Dir Wind Speed Gust Speed Precip Events Conditions
12:00 AM 86 °F - 74 °F 61% 29.52 in 6 mi North 3.5 mph - -  
12:00 AM 86.0 °F 95.1 °F 75.2 °F 70% 29.50 in - North 3.5 mph - N/A   Clear
1:00 AM 86.0 °F 95.1 °F 75.2 °F 70% 29.50 in - NNW 5.8 mph - N/A   Clear
2:00 AM 86.0 °F 96.9 °F 77.0 °F 74% 29.50 in - Calm Calm - N/A   Clear
2:30 AM 86.0 °F 96.9 °F 77.0 °F 74% 29.50 in - NNW 3.5 mph - N/A   Clear
3:00 AM 85 °F - 75 °F 66% 29.53 in 6 mi NNW 3.5 mph - -  
3:00 AM 84.2 °F 92.3 °F 75.2 °F 74% 29.50 in - NNW 3.5 mph - N/A   Clear
3:30 AM 84.2 °F 89.6 °F 71.6 °F 66% 29.53 in - North 3.5 mph - N/A   Clear
4:00 AM 84.2 °F 89.6 °F 71.6 °F 66% 29.53 in - North 3.5 mph - N/A   Clear
4:30 AM 86.0 °F 91.8 °F 71.6 °F 62% 29.53 in - NNW 4.6 mph - N/A   Clear
5:00 AM 86.0 °F 90.4 °F 69.8 °F 58% 29.53 in - Variable 2.3 mph - N/A   Clear
5:30 AM 86.0 °F 89.4 °F 68.0 °F 55% 29.53 in - Variable 2.3 mph - N/A   Clear
6:00 AM 89 °F - 68 °F 40% 29.57 in 7 mi 1.2 mph - -  
6:00 AM 89.6 °F 93.4 °F 68.0 °F 49% 29.56 in - Variable 1.2 mph - N/A   Clear
6:30 AM 91.4 °F 92.1 °F 62.6 °F 38% 29.56 in - Variable 1.2 mph - N/A   Clear
7:00 AM 95.0 °F 96.0 °F 62.6 °F 34% 29.56 in 5.6 mi Variable 2.3 mph - N/A   Unknown
7:30 AM 96.8 °F - 50.0 °F 20% 29.56 in - NW 8.1 mph - N/A   Clear
8:00 AM 95.0 °F 93.0 °F 55.4 °F 26% 29.56 in - NW 8.1 mph - N/A   Clear
8:30 AM 96.8 °F 97.1 °F 60.8 °F 30% 29.56 in - NW 10.4 mph - N/A   Clear
9:00 AM 97 °F - 60 °F 20% 29.59 in 7 mi NW 12.7 mph - -  
9:00 AM 96.8 °F 96.2 °F 59.0 °F 28% 29.56 in - NW 12.7 mph - N/A   Clear
9:30 AM 98.6 °F 98.5 °F 59.0 °F 27% 29.56 in - NW 10.4 mph - N/A   Clear
10:00 AM 100.4 °F 98.8 °F 55.4 °F 22% 29.56 in - NNW 6.9 mph - N/A   Clear
10:30 AM 102.2 °F - 51.8 °F 18% 29.56 in - NW 9.2 mph - N/A   Clear
11:00 AM 104.0 °F 102.3 °F 53.6 °F 19% 29.56 in - NNW 6.9 mph - N/A   Clear
11:30 AM 104.0 °F 102.3 °F 53.6 °F 19% 29.56 in - NNW 8.1 mph - N/A   Clear
12:00 PM 105 °F - 50 °F 9% 29.57 in 9 mi North 5.8 mph - -  
12:00 PM 105.8 °F - 50.0 °F 15% 29.56 in - North 5.8 mph - N/A   Clear
12:30 PM 105.8 °F - 48.2 °F 14% 29.56 in - Variable 4.6 mph - N/A   Clear
1:00 PM 107.6 °F - 51.8 °F 16% 29.53 in - North 6.9 mph - N/A   Clear
1:30 PM 109.4 °F - 37.4 °F 9% 29.53 in - NNE 5.8 mph - N/A   Clear
2:00 PM 107.6 °F - 44.6 °F 12% 29.53 in - NE 8.1 mph - N/A   Clear
3:00 PM 100 °F - 60 °F 18% 29.55 in 9 mi NE 10.4 mph - -  
3:00 PM 100.4 °F 101.3 °F 60.8 °F 27% 29.53 in - NE 10.4 mph - N/A   Clear
3:30 PM 100.4 °F 101.3 °F 60.8 °F 27% 29.53 in - NNE 9.2 mph - N/A   Clear
4:00 PM 98.6 °F 101.0 °F 64.4 °F 32% 29.53 in - NNE 10.4 mph - N/A   Clear
4:30 PM 100.4 °F 98.8 °F 55.4 °F 22% 29.53 in - NNE 9.2 mph - N/A   Clear
5:00 PM 98.6 °F 102.8 °F 66.2 °F 35% 29.53 in 0.3 mi North - - N/A   Unknown
6:00 PM 95 °F - 75 °F 43% 29.56 in 6 mi NE 6.9 mph - -  
6:00 PM 95.0 °F 107.4 °F 75.2 °F 53% 29.53 in - NE 6.9 mph - N/A   Clear
7:00 PM 91.4 °F 107.2 °F 78.8 °F 66% 29.56 in 5.0 mi North 6.9 mph - N/A   Unknown
7:30 PM 89.6 °F 104.7 °F 78.8 °F 70% 29.56 in 5.0 mi NNE 4.6 mph - N/A   Unknown
8:00 PM 89.6 °F 108.2 °F 80.6 °F 75% 29.56 in 5.0 mi North 4.6 mph - N/A   Unknown
8:30 PM 89.6 °F 108.2 °F 80.6 °F 75% 29.56 in 5.0 mi North 3.5 mph - N/A   Unknown
9:00 PM 90 °F - 79 °F 64% 29.59 in 5 mi NNE 2.3 mph - -   Haze
9:30 PM 89.6 °F 104.7 °F 78.8 °F 70% 29.59 in 5.0 mi Variable 1.2 mph - N/A   Unknown
10:00 PM 91.4 °F 107.2 °F 78.8 °F 66% 29.59 in 5.0 mi Variable 2.3 mph - N/A   Unknown
10:30 PM 89.6 °F 102.2 °F 77.0 °F 66% 29.56 in 5.0 mi North 3.5 mph - N/A   Unknown
11:00 PM 89.6 °F 104.7 °F 78.8 °F 70% 29.59 in 5.0 mi Variable 2.3 mph - N/A   Unknown
11:30 PM 89.6 °F 104.7 °F 78.8 °F 70% 29.56 in 5.0 mi SSE 4.6 mph - N/A   Unknown